Wind_Speed
41 40 45 49 49 48 44 42 38 26 21 24 24 23 24 19 18 21 17 13 15 17 20 19 17 19 17 13 11 9 10 15 18 23 29 30 29 28 29 30 28 23 19 16 15 15 13 11 11 11 10 12 12 13 13 13 14 15 17 18 17 17 17 16 15 14 12 10 8 7 5 3 2 1 2 3 4 5 7 8 9 10 12 14 15 16
42 44 50 51 47 45 43 40 38 31 20 19 22 21 22 22 18 18 18 14 13 16 19 20 19 20 19 16 14 13 13 15 20 26 31 34 34 32 30 30 27 21 18 17 15 14 13 12 12 12 10 11 13 13 13 13 14 16 18 18 18 18 18 16 14 13 10 8 6 4 3 1 1 2 4 5 7 8 9 10 11 12 13 15 16 17
45 50 51 48 45 43 41 39 37 35 25 18 19 21 21 22 20 18 18 15 12 15 17 19 22 22 21 20 17 16 17 17 23 29 31 33 35 33 30 28 24 20 19 17 15 14 14 13 12 11 10 12 14 13 13 15 15 17 17 17 18 18 17 14 12 10 8 6 4 2 1 1 2 4 5 6 7 8 9 10 11 13 14 15 17 18
45 47 48 45 44 43 40 38 36 35 32 24 19 20 19 20 21 17 17 16 13 14 16 17 21 22 21 22 22 21 23 24 28 33 31 29 28 26 27 27 23 21 20 17 16 15 14 14 13 11 11 12 14 14 15 16 16 16 16 16 17 17 14 12 11 9 6 4 2 1 1 3 4 5 6 7 8 9 10 12 13 14 15 16 17 18
41 38 42 43 41 42 40 37 37 35 35 31 25 21 17 18 21 16 14 15 14 14 17 16 15 19 21 22 24 25 26 28 29 29 28 24 23 25 27 27 24 21 20 17 16 15 14 14 14 12 11 12 14 15 16 16 16 15 15 15 16 15 13 11 10 8 6 4 3 3 4 5 5 6 7 8 9 10 11 13 14 15 16 17 17 18
39 32 36 40 40 42 40 38 38 37 35 33 30 26 19 16 19 17 12 10 12 14 18 17 11 13 21 24 25 28 29 30 29 26 25 24 25 28 29 27 25 22 20 18 16 14 14 14 13 12 11 12 13 16 16 16 15 14 14 14 15 14 12 11 9 7 5 4 5 5 6 6 7 7 7 8 9 11 12 13 14 15 16 16 17 17
38 30 30 37 39 40 40 38 38 37 35 33 33 31 22 16 17 19 13 7 8 11 16 20 14 9 16 23 26 29 31 31 29 26 25 27 27 30 29 25 23 22 20 19 16 14 14 13 12 12 12 12 13 15 16 15 14 14 14 14 14 13 11 10 8 6 5 5 6 6 7 7 7 7 8 9 11 12 13 14 14 14 14 15 16 17
38 31 27 32 36 39 41 39 37 37 34 31 32 31 26 21 18 17 14 7 7 9 12 17 19 15 15 22 25 28 33 32 29 29 28 28 28 28 26 23 20 21 21 19 17 15 15 13 12 12 11 12 13 14 15 15 14 14 14 14 13 11 10 8 7 6 6 6 7 7 8 8 8 8 9 11 12 13 14 14 14 14 14 15 16 17
32 32 29 30 33 37 42 41 37 34 32 29 29 29 27 23 19 17 13 10 9 8 13 18 19 14 11 17 22 25 34 36 30 30 31 30 29 27 25 24 22 23 22 20 18 17 15 13 14 13 11 11 13 14 15 16 15 15 14 13 12 10 9 7 7 6 7 7 8 8 9 9 9 9 11 12 13 14 14 14 13 14 15 16 16 18
24 31 30 29 32 34 38 38 35 33 29 25 25 27 26 21 19 18 14 14 11 8 18 26 21 12 5 11 20 24 33 37 32 31 32 31 29 26 24 25 24 26 25 23 21 18 16 15 16 16 13 12 13 14 15 16 16 15 14 13 11 10 8 7 7 7 8 8 8 9 9 9 9 11 12 13 14 14 13 13 13 14 15 16 17 18
19 25 29 28 29 30 32 33 33 33 27 21 23 25 21 17 15 13 13 15 9 10 25 31 22 13 6 9 19 25 29 30 29 31 33 33 31 26 26 29 31 31 29 26 23 20 18 16 17 17 16 13 12 12 13 14 15 14 14 13 11 9 8 8 8 8 8 8 9 9 9 9 10 12 13 14 15 14 13 13 14 15 16 16 16 17
16 18 28 31 27 23 23 27 31 31 27 20 22 26 19 13 11 8 11 13 7 9 20 23 20 16 11 11 16 19 22 23 25 29 31 33 33 30 30 34 36 34 31 28 25 22 19 18 18 17 16 14 12 12 13 13 13 14 13 12 11 10 8 8 7 7 8 8 8 8 8 9 11 12 13 14 14 13 13 13 14 15 16 16 16 16
20 19 26 29 27 24 19 22 26 28 28 24 23 28 20 9 8 7 6 8 7 5 5 7 12 16 17 18 18 16 15 18 22 25 27 31 33 33 34 36 36 34 32 29 27 25 22 20 18 16 15 15 15 15 14 13 13 13 13 12 11 10 8 8 7 8 8 8 7 7 8 10 11 12 13 13 13 13 13 14 15 15 15 16 16 16
22 19 24 25 24 28 25 24 29 31 33 31 29 31 22 8 5 7 4 3 5 5 3 5 7 10 13 15 19 20 15 13 19 24 29 32 32 33 35 36 34 33 32 29 28 27 24 22 19 17 15 15 16 18 17 16 15 15 14 13 12 11 9 8 8 8 8 7 7 8 9 10 11 12 12 12 12 13 14 15 15 16 15 15 16 16
22 15 22 26 22 27 31 26 27 32 34 35 33 31 28 17 8 6 5 2 2 2 4 9 7 4 6 7 13 18 17 18 22 26 31 34 34 33 35 37 34 34 34 29 25 25 23 20 18 16 16 15 16 18 19 18 17 16 15 14 14 13 11 9 9 9 8 8 8 9 10 10 10 11 11 12 13 13 15 16 16 16 16 16 15 16
26 16 18 24 18 19 29 27 23 26 31 34 34 31 33 29 13 5 4 6 5 4 3 10 9 5 5 6 9 14 20 26 27 28 32 36 37 37 37 38 35 35 35 27 24 25 24 21 18 17 16 15 16 17 18 18 17 16 16 16 16 14 12 11 11 10 9 9 9 10 10 10 10 11 11 12 13 14 15 16 17 17 17 17 16 16
23 14 15 21 16 13 22 28 26 24 28 33 34 33 34 30 16 6 5 7 6 3 4 8 7 6 7 7 10 14 21 28 31 31 33 34 36 37 37 37 36 37 34 27 25 27 26 23 19 18 17 15 15 15 16 17 18 18 18 17 16 14 13 13 12 11 10 10 10 11 10 10 10 11 12 13 14 15 16 17 17 17 18 18 17 17
19 11 12 20 17 15 18 24 27 24 26 33 37 35 27 20 19 12 3 3 4 2 6 8 5 8 9 7 10 15 22 29 31 30 31 31 32 34 35 37 39 38 32 29 29 27 26 22 18 17 15 12 13 13 13 15 17 17 17 16 16 15 14 14 13 12 11 11 11 11 10 10 10 11 12 13 15 16 17 17 18 18 18 19 19 19
19 11 11 20 19 17 20 23 27 27 27 31 35 33 23 14 17 18 6 1 3 2 3 5 5 11 15 15 16 19 25 28 28 27 30 32 32 34 36 36 38 35 32 33 32 27 23 20 18 18 16 13 13 12 12 14 15 15 15 16 16 16 16 16 14 13 11 11 11 11 10 10 11 12 13 14 15 17 17 18 18 19 19 20 21 21
19 15 9 21 24 19 23 29 32 34 32 28 25 26 27 20 19 22 14 4 3 3 2 2 1 9 20 22 21 22 23 24 26 28 32 33 32 33 35 35 35 34 34 33 28 23 23 23 23 23 19 14 12 11 12 13 14 15 15 16 17 17 17 16 14 13 12 11 11 11 11 11 12 13 14 15 16 17 18 18 18 19 20 21 22 23
18 19 10 18 28 25 27 35 38 37 35 32 26 25 31 29 21 20 19 14 7 3 3 3 2 7 16 21 22 22 19 17 21 26 29 33 33 33 34 34 35 35 35 31 25 23 26 26 26 25 21 15 12 12 13 13 14 15 15 17 17 17 17 16 14 13 12 12 12 12 11 12 12 13 15 16 17 17 17 18 19 20 21 22 23 24
16 21 16 17 30 34 31 33 35 33 32 34 31 27 29 30 23 14 11 18 17 7 3 5 3 4 9 17 20 20 17 16 20 24 27 33 35 34 35 36 36 36 35 32 28 27 28 28 28 26 23 17 14 14 15 14 14 14 14 16 16 16 16 16 14 13 12 12 12 11 12 13 13 14 15 16 16 17 17 18 19 21 22 23 24 25
16 17 18 15 24 33 27 24 29 30 29 30 31 29 25 27 28 19 11 16 18 8 4 5 2 4 8 16 18 19 19 19 23 29 31 34 37 37 38 39 39 38 35 33 31 29 30 31 30 28 25 19 16 17 16 15 14 11 13 15 16 16 17 15 14 13 13 13 12 12 13 13 13 14 14 15 16 17 18 19 20 22 23 24 25 26
21 15 14 10 12 21 21 20 25 28 27 27 30 32 29 27 29 27 23 21 17 10 7 3 1 4 8 14 19 20 22 23 26 33 36 37 38 39 39 40 39 38 37 34 32 31 31 32 31 30 26 21 18 18 16 15 13 12 14 15 16 17 16 15 14 14 13 13 13 13 13 12 13 13 14 15 16 18 19 20 22 23 24 25 26 27
24 16 14 9 6 10 15 15 19 24 29 30 30 32 33 31 29 27 25 23 18 17 18 9 3 6 9 14 21 23 24 27 30 34 37 38 39 39 39 39 39 38 36 34 32 32 32 32 32 30 26 23 20 17 16 14 13 15 16 16 17 17 17 16 16 14 14 13 13 13 12 12 12 13 14 15 16 18 19 20 22 23 24 25 26 27
24 18 16 11 5 6 8 10 17 24 29 31 31 31 32 33 32 28 22 20 19 21 24 18 9 9 12 16 23 27 27 29 32 35 37 37 37 38 38 38 38 37 35 33 33 33 33 33 33 29 25 23 20 17 16 15 16 17 17 18 18 18 18 17 15 14 14 13 13 12 11 12 12 13 14 15 16 17 19 20 22 23 25 26 27 28
25 20 17 13 9 7 8 10 16 21 24 29 31 31 32 32 34 32 24 20 21 20 23 24 19 15 16 18 23 29 31 31 33 36 38 38 38 38 38 37 36 35 34 33 33 34 34 34 32 27 24 22 19 17 16 16 19 19 19 19 19 18 17 16 14 14 14 13 12 11 12 12 13 13 14 15 16 18 19 21 23 24 26 27 28 29
25 23 20 17 15 12 6 5 9 13 17 25 30 31 32 31 32 36 33 28 24 18 18 24 23 20 21 21 22 27 32 33 33 35 38 40 40 39 38 37 36 36 35 33 33 35 34 32 29 24 23 20 16 15 15 18 20 20 19 19 18 17 16 14 14 14 13 12 12 12 13 13 14 14 14 16 17 19 21 22 24 25 26 28 28 29
23 23 22 21 19 16 11 9 8 7 9 18 27 31 32 32 33 36 36 35 32 24 20 23 24 23 24 23 22 23 28 32 33 34 35 37 38 37 36 36 37 36 34 33 33 32 28 25 24 21 19 16 13 13 16 19 20 19 19 18 17 15 14 14 14 14 13 13 13 13 14 14 15 15 16 17 18 20 22 23 25 26 27 28 29 30
22 20 20 21 20 18 15 11 9 9 8 12 23 30 31 31 32 32 33 34 35 33 29 27 26 25 24 25 24 23 27 32 33 32 33 33 34 35 35 36 36 34 33 32 30 27 23 21 21 19 17 13 12 15 17 19 19 19 17 16 14 14 14 14 14 14 14 14 14 14 15 15 16 16 17 18 19 21 23 24 26 27 28 29 29 30
21 19 19 21 21 20 19 15 11 10 9 8 19 29 32 31 30 31 33 34 36 34 28 25 28 29 26 24 25 26 29 33 33 32 32 30 31 33 34 35 35 33 32 30 27 25 22 20 20 20 17 14 14 17 18 19 18 16 15 14 13 14 15 15 15 15 14 14 15 15 16 16 17 17 18 19 20 22 23 25 26 27 28 28 28 28
23 18 17 21 20 17 16 15 12 10 8 8 15 26 32 35 34 34 36 36 36 32 23 20 23 26 26 23 22 25 30 33 34 34 33 31 30 30 31 33 34 34 32 29 26 23 21 21 21 21 19 16 17 19 19 18 16 14 14 13 13 14 15 16 15 14 14 14 15 15 16 17 17 17 18 19 20 22 23 24 25 26 26 26 26 26
27 22 17 19 17 10 9 11 9 6 4 7 15 25 32 36 36 35 36 37 36 34 28 23 19 19 23 23 21 23 29 33 35 34 33 33 32 31 29 30 31 30 28 26 23 20 20 21 21 19 18 17 18 18 17 16 14 13 13 13 13 15 16 15 14 13 13 14 14 15 16 16 17 17 18 19 20 21 22 23 23 24 24 24 23 22
28 25 18 17 15 7 5 8 5 1 3 6 13 22 29 36 38 37 38 38 37 36 34 29 23 20 23 24 21 20 24 30 33 34 33 33 33 33 32 30 28 26 24 22 20 20 21 21 19 16 15 16 16 15 14 13 13 12 12 12 13 15 15 14 12 12 12 13 14 15 16 16 16 16 17 19 19 20 20 20 21 20 20 19 18 18
26 26 22 18 14 7 5 5 0 0 7 11 11 15 22 31 36 36 37 37 35 34 32 28 24 23 25 26 25 24 26 30 32 32 32 31 28 29 31 29 26 24 21 20 20 21 21 20 17 14 13 15 16 14 14 13 11 11 11 11 13 14 14 12 11 11 12 13 14 14 14 14 15 16 16 17 17 17 17 17 16 15 15 14 14 15
23 25 23 17 13 8 6 6 3 4 11 15 14 13 17 27 34 34 34 34 32 29 29 27 22 21 25 28 28 28 30 32 31 28 26 24 23 24 25 24 23 22 20 20 20 20 18 17 16 13 13 17 17 15 14 12 10 10 10 12 13 13 12 10 10 11 12 13 13 12 12 13 13 14 14 14 14 14 13 13 12 12 12 13 14 15
21 22 23 17 11 7 6 6 6 6 10 17 19 15 13 19 29 32 31 32 31 27 26 26 22 20 24 28 28 30 31 31 29 27 25 24 24 24 21 19 18 18 18 19 19 18 17 16 14 13 15 18 16 14 12 11 10 11 11 12 13 11 10 9 10 10 11 11 10 10 10 11 11 11 11 11 11 10 10 10 10 11 12 13 15 16
23 22 23 18 11 8 6 4 3 3 6 15 19 16 12 12 19 24 24 26 30 28 25 26 24 22 24 27 29 30 31 31 31 31 30 31 31 28 23 18 16 16 17 19 18 17 16 14 13 15 17 16 14 12 11 10 10 11 11 12 10 9 8 8 8 9 8 8 7 8 8 8 8 8 8 8 7 7 8 9 10 11 13 15 17 19
25 23 22 18 12 11 10 6 4 6 10 13 15 16 15 12 15 18 15 19 27 28 24 25 25 24 24 26 27 30 32 34 34 34 34 34 33 30 26 22 19 18 18 17 16 14 14 13 14 16 15 13 12 10 9 9 10 11 10 9 7 7 7 7 7 6 5 5 6 6 6 5 5 5 5 5 5 6 8 10 12 14 16 18 19 21
26 25 23 20 15 14 14 10 9 12 14 15 16 16 16 15 16 15 9 13 23 26 22 23 25 25 25 25 26 28 29 27 27 30 32 33 32 30 27 24 22 21 19 18 17 15 15 15 15 15 14 12 10 9 9 9 9 8 7 6 5 5 5 5 5 4 4 4 4 3 3 3 4 4 4 4 5 8 10 12 14 16 18 19 21 22
26 26 24 23 19 16 16 15 14 12 13 18 19 18 19 18 18 15 10 10 18 21 20 22 24 24 25 25 25 27 26 22 21 25 29 30 30 29 27 24 22 20 19 19 19 19 18 17 16 15 13 11 9 8 8 7 6 5 4 4 4 4 3 3 3 3 3 2 2 3 4 5 5 5 5 6 8 11 13 14 16 17 18 20 21 22
26 25 24 24 21 18 19 17 13 10 12 18 20 20 22 21 18 17 13 10 15 20 21 21 22 23 24 25 25 27 27 25 24 27 28 29 29 30 29 27 25 23 22 21 20 19 18 17 15 13 11 9 9 7 6 4 3 3 3 3 2 1 1 1 1 1 2 3 5 5 5 6 7 7 7 8 10 12 13 14 16 17 18 19 20 21
26 25 24 25 22 18 17 14 7 6 12 19 20 19 20 19 15 15 14 12 16 22 23 22 23 25 25 26 27 28 28 27 26 28 29 29 28 28 28 27 26 24 24 23 21 19 17 15 13 11 9 9 8 6 4 3 3 3 3 1 0 1 1 1 1 3 4 5 6 6 7 8 9 9 9 10 11 12 13 14 15 16 17 18 19 20
25 25 25 27 25 20 17 15 10 7 11 18 20 18 16 16 15 15 17 16 18 23 25 25 25 27 27 27 27 28 28 28 27 29 31 30 29 28 28 27 25 23 22 21 19 18 16 15 13 10 9 8 6 4 3 3 3 3 1 1 2 2 2 3 4 6 7 6 6 7 8 9 10 10 9 10 11 12 13 13 14 15 16 17 18 19
25 25 23 25 26 22 19 18 14 10 8 13 17 17 17 17 16 17 19 19 17 20 25 26 25 26 27 28 27 27 29 29 28 29 30 29 28 29 28 26 25 23 21 19 18 18 17 15 12 10 7 6 4 3 3 3 3 1 2 3 4 4 5 6 7 8 8 7 7 8 9 10 10 9 9 10 11 11 12 12 13 14 15 16 17 18
23 22 19 20 24 22 19 17 15 11 8 9 13 16 19 20 18 17 18 18 15 15 19 23 22 22 25 27 27 28 31 31 29 29 29 27 27 28 28 26 25 22 20 19 20 19 17 15 12 9 6 4 3 3 3 3 2 2 4 4 5 6 7 8 9 8 9 9 9 9 9 9 9 9 9 10 10 10 10 11 12 13 14 15 17 17
21 20 16 16 19 19 17 16 15 13 10 9 12 16 20 21 20 17 16 17 16 14 15 18 19 19 22 25 27 29 33 32 29 29 29 27 28 28 27 25 24 22 20 20 21 19 16 13 10 7 5 4 3 4 3 2 3 5 5 5 6 8 9 9 9 9 10 9 9 9 8 8 9 9 9 9 9 9 9 10 11 13 14 15 15 16
19 18 15 14 14 14 14 15 15 14 12 11 12 16 20 21 21 19 15 15 15 14 15 17 18 19 22 26 28 31 33 31 28 28 29 29 29 29 26 24 23 22 22 22 21 18 15 12 9 7 5 4 4 3 3 3 5 7 7 8 9 10 10 10 10 10 10 9 9 8 8 8 8 8 8 8 8 8 9 10 12 13 14 14 15 15
16 16 14 13 12 13 14 14 14 14 14 13 14 17 21 22 23 21 16 13 12 13 15 17 18 18 22 27 29 30 31 30 27 27 28 29 29 29 27 25 23 23 23 23 21 18 15 12 9 8 6 4 4 3 4 6 7 8 9 10 11 11 11 11 11 11 10 9 8 8 7 7 7 8 8 8 8 9 10 11 12 13 14 14 15 16
16 16 14 12 12 12 11 10 10 12 13 14 15 19 22 23 23 21 17 13 11 11 14 18 19 20 23 27 29 29 30 29 28 27 28 28 29 29 29 28 26 24 22 21 20 18 16 13 10 8 6 4 3 4 7 8 9 10 11 12 12 13 13 12 11 10 9 8 8 7 7 7 7 7 7 8 9 9 10 11 12 13 14 15 16 17
16 15 14 13 12 10 9 8 7 8 10 11 13 17 20 22 21 20 18 16 13 11 12 16 19 23 27 29 28 27 27 27 28 29 29 28 28 29 31 32 30 26 22 20 19 18 15 11 9 8 6 4 5 8 10 11 11 12 13 13 14 14 13 12 11 10 9 9 8 7 7 7 7 7 7 8 9 10 11 12 12 13 14 15 16 17
Wind_Direction
203 204 206 207 207 205 205 206 205 208 206 204 206 207 205 201 203 204 194 186 196 204 207 212 220 221 225 232 231 228 223 222 217 209 211 215 214 207 198 186 177 177 178 175 179 186 194 204 209 212 211 207 195 184 180 172 168 166 163 163 162 162 162 159 157 153 151 150 145 141 137 140 163 233 288 295 299 304 308 310 312 313 313 313 311 310
204 209 211 209 209 207 207 207 206 206 200 200 205 204 205 204 202 200 197 193 194 201 206 210 217 223 228 239 241 233 235 233 223 218 216 212 207 205 196 182 176 178 177 177 181 189 197 200 207 210 207 203 191 183 179 168 165 165 163 163 162 163 162 158 156 152 148 143 135 129 126 131 286 303 304 305 307 309 309 309 309 307 306 306 306 307
206 212 213 210 210 208 208 209 208 208 203 195 198 201 203 203 200 199 198 198 195 201 208 208 214 223 229 235 237 231 233 233 226 223 222 215 207 201 190 179 179 181 177 181 187 192 199 199 204 207 205 199 189 183 177 168 166 166 165 165 163 162 160 158 156 152 146 138 132 124 113 297 302 301 301 303 303 302 302 303 303 301 301 301 303 305
206 214 214 210 210 210 209 210 210 211 210 205 196 194 197 198 198 197 199 203 201 202 210 212 216 224 228 229 227 221 220 222 220 220 220 220 217 208 192 182 184 186 182 184 189 196 203 200 200 205 205 199 192 185 176 171 169 168 169 167 165 163 158 157 154 150 147 146 158 190 249 279 290 291 291 293 293 294 296 298 299 300 302 302 303 304
208 214 214 210 210 210 210 211 210 209 212 213 209 201 194 191 193 193 195 206 209 207 214 217 222 228 224 221 221 216 215 221 224 226 225 223 224 218 199 188 188 188 187 189 190 200 208 203 201 205 205 200 195 187 178 174 172 170 171 168 167 166 161 158 156 156 162 177 209 234 257 277 286 287 287 287 289 291 294 298 300 301 302 301 301 302
210 215 215 211 210 211 211 212 211 209 211 216 216 210 199 187 189 191 188 197 207 211 217 217 222 234 224 218 219 215 214 218 223 230 232 227 225 220 202 188 188 189 191 194 194 204 209 205 204 205 204 199 194 190 182 178 175 172 170 168 169 169 168 167 166 171 184 206 234 253 270 283 290 290 290 292 294 298 300 301 301 300 298 298 299 301
211 214 216 213 211 211 212 214 213 210 211 217 218 211 203 194 188 193 198 194 200 209 216 219 223 235 228 220 217 216 215 218 220 222 229 227 221 219 206 188 188 194 195 196 198 207 210 206 206 205 204 199 193 192 187 181 179 175 173 172 173 174 175 177 178 188 206 228 246 261 277 287 292 293 296 298 300 302 302 303 302 300 298 298 301 306
212 209 212 213 212 212 213 214 213 212 211 216 218 211 208 206 194 198 211 209 204 213 217 222 227 236 241 228 218 215 214 216 217 215 224 225 215 217 210 190 194 204 201 200 200 205 207 205 204 201 203 199 191 190 187 187 187 183 180 179 180 183 185 188 195 210 227 245 258 269 282 288 292 295 299 301 302 303 303 304 303 302 301 303 307 311
212 207 207 210 211 212 215 213 212 211 211 215 217 211 211 212 207 213 223 218 220 243 237 222 219 230 249 235 222 217 214 214 215 213 220 223 214 218 208 188 199 212 205 203 203 203 205 201 196 194 199 197 190 190 189 191 192 188 187 186 188 194 198 204 215 230 243 255 265 273 281 287 292 297 302 304 304 305 305 306 305 303 304 307 310 313
215 211 208 211 212 213 215 214 212 211 210 213 215 212 213 216 220 228 237 237 236 264 247 226 214 219 253 237 220 213 211 212 212 212 220 223 219 218 202 185 200 213 208 204 202 203 203 197 195 195 196 192 189 195 195 194 195 193 193 194 198 203 208 219 232 243 251 259 268 275 280 285 293 299 303 304 303 305 305 304 304 303 305 309 312 315
216 212 208 212 216 215 215 215 213 212 208 205 209 209 209 211 219 225 228 233 240 254 244 234 224 224 246 243 225 218 217 214 209 209 216 221 220 213 197 190 202 210 207 201 198 200 198 195 197 197 197 195 191 197 201 202 202 201 202 203 204 207 213 228 242 252 260 268 274 277 280 286 295 300 303 304 304 306 304 303 305 306 308 311 313 316
203 202 204 210 214 210 211 212 212 213 205 197 206 205 196 187 188 196 203 206 216 243 246 246 240 231 231 233 231 231 229 219 209 207 211 216 217 209 199 199 206 207 202 198 197 197 195 195 196 194 196 200 200 204 207 209 210 210 212 210 207 211 223 239 250 258 266 271 273 275 281 289 296 299 302 303 305 306 305 307 308 308 309 309 311 315
195 191 196 205 212 205 198 197 199 205 201 190 193 193 184 163 167 184 193 196 218 240 253 258 238 231 236 239 240 247 241 222 211 208 209 213 213 208 202 202 207 207 202 199 198 198 198 198 195 192 197 202 206 213 215 214 215 216 217 214 216 224 236 250 257 261 264 264 267 274 282 290 295 297 300 301 302 303 304 306 306 305 305 305 309 314
192 195 194 195 205 206 201 191 186 191 193 187 185 185 181 156 155 195 203 216 243 243 239 237 225 229 241 243 239 241 243 227 211 207 210 216 216 210 204 201 205 207 205 202 201 201 201 201 198 193 198 206 211 215 217 216 216 218 220 222 228 236 246 257 262 261 260 257 262 273 282 287 291 293 296 297 297 300 302 303 303 301 301 302 307 312
187 197 199 190 192 203 204 202 196 192 189 192 196 193 191 188 174 190 198 189 205 182 199 211 214 232 226 225 231 229 224 216 207 204 208 216 220 216 208 204 204 205 207 207 204 203 204 205 206 201 201 208 213 216 219 219 219 223 228 233 238 243 249 258 264 261 254 253 262 273 280 284 288 291 294 296 297 299 301 301 300 299 299 301 305 310
193 202 202 192 187 197 201 201 200 194 188 194 201 202 204 202 182 131 166 179 168 102 146 200 214 245 231 226 229 214 207 207 206 205 206 210 215 214 207 205 206 209 212 209 198 200 210 215 216 215 212 210 211 214 219 222 226 231 236 241 242 245 249 255 260 254 246 252 265 274 281 285 289 291 294 295 296 298 299 299 299 299 300 301 304 309
196 207 206 196 186 185 199 199 195 193 189 191 198 204 209 207 191 152 145 166 166 145 216 220 222 234 234 236 227 207 201 205 204 205 207 209 211 212 208 206 209 211 213 211 202 202 214 224 226 225 223 218 214 213 216 222 229 235 239 241 240 242 247 253 251 242 241 253 265 273 278 283 286 289 291 292 294 296 298 299 298 298 300 301 302 305
198 201 204 202 188 173 190 198 197 199 197 195 200 203 201 201 205 208 177 125 148 164 232 231 207 210 213 200 205 202 196 202 205 203 206 210 212 215 215 213 211 209 210 215 213 209 216 227 230 231 234 238 238 232 225 226 232 237 240 240 238 239 244 248 241 233 240 252 262 269 272 276 281 284 287 290 294 297 299 299 298 297 298 299 299 301
207 202 205 204 192 171 180 193 198 202 205 205 206 202 191 187 202 206 197 134 168 157 267 252 207 216 214 190 189 198 194 198 204 201 202 207 210 214 215 214 214 214 211 211 213 215 219 219 219 231 248 260 261 254 239 235 240 243 243 240 236 235 239 239 230 229 240 251 258 264 267 273 279 284 289 293 297 299 299 299 298 297 297 297 298 298
205 196 202 199 189 175 180 191 197 199 203 209 212 204 199 202 206 203 199 183 153 156 249 285 226 231 224 206 199 207 206 201 200 200 203 206 209 211 211 211 213 214 213 213 217 220 213 207 216 236 256 270 276 271 256 250 253 254 249 238 231 230 232 229 225 231 242 250 257 262 267 276 283 288 293 296 298 299 299 299 297 297 297 297 298 298
196 192 198 188 186 188 191 196 199 198 197 201 204 200 201 207 206 202 205 209 204 164 166 214 258 246 229 217 212 218 222 217 206 204 206 208 209 209 208 210 210 210 214 221 225 216 208 215 231 245 259 274 283 279 270 265 266 263 249 231 225 227 227 224 226 235 243 250 257 265 274 283 288 291 294 296 299 300 300 300 298 298 298 298 299 300
193 195 203 186 187 197 200 200 200 200 200 202 202 199 202 205 195 182 201 214 215 213 176 196 248 283 231 220 221 223 226 223 212 206 207 209 210 208 207 210 213 215 217 221 220 216 220 232 241 247 256 267 274 274 275 275 272 262 236 220 219 222 222 223 230 237 244 252 260 270 278 283 287 291 295 298 300 301 300 301 301 301 302 302 302 303
198 197 204 197 195 199 202 204 202 201 204 208 210 208 207 208 199 191 197 203 202 212 213 195 238 293 236 219 217 218 218 216 209 206 208 210 210 210 209 210 215 219 219 219 221 224 231 238 242 246 253 261 268 271 275 278 271 248 217 212 215 217 220 226 233 239 246 253 261 269 274 280 286 292 297 299 301 301 301 302 303 305 305 305 305 305
205 203 201 195 193 195 196 202 204 204 206 209 214 212 210 211 208 207 213 207 195 196 199 178 193 238 226 215 208 207 209 210 208 207 210 211 210 210 211 212 216 219 220 222 227 232 237 240 244 250 254 258 262 266 272 274 260 229 211 210 213 217 223 230 234 240 246 253 261 266 272 282 289 294 298 299 301 302 303 304 305 306 306 306 306 306
203 205 202 178 144 171 184 194 200 203 207 211 215 213 211 214 212 212 214 207 203 211 210 205 212 211 211 208 202 200 202 206 207 207 210 212 210 209 210 213 217 221 225 228 231 234 237 241 247 253 258 260 262 266 273 267 241 219 211 211 214 218 224 229 233 239 245 252 260 266 275 284 289 294 296 300 302 303 305 306 306 307 306 307 307 306
201 205 207 193 154 153 166 180 194 199 204 211 216 216 215 215 215 215 208 195 202 213 210 209 215 208 205 203 199 198 200 204 205 207 209 211 212 213 213 216 220 224 228 228 229 233 237 241 248 256 263 266 267 273 274 253 224 214 211 212 215 220 224 228 234 239 246 254 260 268 278 283 288 293 296 300 303 303 305 306 306 307 307 307 307 306
207 210 211 208 206 183 146 155 186 198 204 209 214 218 218 217 218 220 215 203 207 210 207 214 221 218 215 212 206 203 201 202 202 204 206 209 213 217 219 221 222 223 224 225 230 237 241 246 254 263 270 272 272 275 265 233 213 210 212 214 218 222 227 231 236 242 249 256 263 272 278 282 287 292 295 298 301 302 304 305 306 308 308 308 308 307
211 215 216 219 222 216 201 191 193 196 206 212 214 216 218 219 220 221 222 221 220 212 208 216 221 225 229 227 220 211 206 203 202 201 205 208 212 217 220 222 221 221 224 228 232 238 244 252 262 270 275 275 273 265 242 215 208 210 213 217 221 226 231 236 241 247 253 259 266 272 276 282 286 288 292 296 299 301 304 305 307 307 308 308 307 307
211 218 220 223 229 228 232 247 235 218 219 217 216 217 218 218 219 221 224 227 228 228 231 229 227 232 238 236 234 228 217 210 203 200 203 208 211 215 217 219 220 224 226 226 229 236 243 255 266 276 279 274 260 240 218 207 209 212 214 220 225 230 236 242 248 252 257 262 268 273 277 282 285 288 293 296 300 303 305 306 307 308 308 308 308 308
208 216 218 219 223 223 227 242 246 247 250 221 212 215 218 220 221 223 224 226 229 234 240 243 238 236 238 235 230 226 219 212 205 202 203 205 207 209 213 216 220 223 224 223 228 237 245 258 267 273 275 262 234 216 207 207 212 214 217 223 229 235 242 246 251 255 260 266 271 276 280 283 286 290 295 299 302 304 306 308 309 309 310 310 310 311
206 210 211 211 212 216 226 238 245 253 265 237 212 211 215 218 219 221 222 222 224 227 232 237 233 228 228 227 221 216 214 210 207 207 207 206 205 205 206 212 218 220 220 224 235 242 250 262 265 262 261 244 216 204 204 208 213 216 219 225 231 238 244 248 252 257 263 270 275 279 282 285 289 294 298 302 305 307 309 311 312 312 313 313 314 315
201 201 196 198 203 209 218 230 245 254 257 242 221 213 212 213 213 215 217 218 217 218 219 220 221 221 221 218 215 213 212 209 207 208 208 208 209 210 208 209 213 218 222 230 241 246 252 262 262 258 254 233 207 200 202 205 210 214 220 226 233 240 245 249 255 260 268 274 277 281 285 288 293 298 303 307 310 312 314 315 316 316 317 318 319 319
199 200 188 187 194 193 200 221 242 243 211 215 220 215 210 210 210 211 214 216 218 222 226 228 229 227 220 213 209 210 210 209 207 207 208 208 209 213 215 213 214 220 227 235 244 247 250 258 259 255 247 227 207 198 198 200 205 212 221 229 236 243 249 254 260 267 274 278 280 284 287 292 297 303 309 313 316 319 320 320 321 321 322 323 324 325
198 203 201 200 198 173 182 224 249 208 185 210 212 209 207 206 208 211 213 216 219 225 231 236 239 234 219 212 213 213 208 208 207 206 208 208 207 208 211 214 219 225 229 235 239 240 245 254 256 249 239 225 208 198 197 201 206 213 223 233 242 249 255 260 268 275 278 281 284 287 290 296 304 310 316 320 323 324 325 325 326 327 329 331 333 336
197 201 203 204 197 171 173 206 228 324 230 228 215 207 205 201 201 205 210 212 214 218 223 228 234 233 221 212 211 207 200 200 203 204 205 206 208 209 209 212 220 227 231 233 232 237 246 253 255 250 236 216 202 197 200 204 209 218 228 240 249 255 259 266 275 280 282 285 287 290 297 305 314 320 324 326 327 328 330 332 334 337 340 344 348 351
196 199 197 190 182 173 157 159 174 249 242 232 220 212 208 200 197 198 201 204 206 209 212 217 224 228 218 207 201 197 194 193 195 197 199 199 204 211 214 218 224 228 230 232 234 243 251 255 256 251 227 207 199 196 196 201 215 228 239 249 253 257 264 273 282 285 287 289 292 299 310 318 324 328 329 331 333 337 341 343 347 351 355 360 4 7
197 199 196 187 175 167 151 167 216 259 254 235 221 213 210 204 200 200 200 202 202 201 204 209 213 215 209 202 196 192 190 188 187 189 193 195 199 203 207 213 218 219 222 228 234 238 241 246 248 229 202 196 196 194 195 204 221 233 243 250 254 261 272 280 286 288 289 294 301 313 324 329 332 334 336 341 347 351 354 356 2 7 12 18 20 20
198 201 201 193 178 172 166 172 218 254 251 235 223 213 209 199 194 198 203 203 199 194 196 203 205 205 202 198 194 189 183 181 185 187 189 193 197 198 196 197 203 210 218 223 225 224 224 230 225 206 194 191 191 193 199 208 221 232 242 248 254 267 278 282 287 289 293 304 318 329 335 337 341 346 353 0 2 3 6 13 22 27 30 31 29 27
198 205 207 196 183 191 194 182 192 213 223 227 220 208 202 191 180 186 204 212 201 192 192 201 204 203 199 195 193 187 181 181 186 188 190 191 192 192 193 195 196 201 208 213 214 213 211 208 203 200 199 194 187 189 198 209 221 233 240 248 261 273 278 283 289 295 309 327 338 343 347 355 7 16 20 19 16 24 33 37 39 39 37 35 32 30
195 200 203 195 188 199 203 198 210 221 217 213 208 199 192 184 173 173 194 216 203 193 192 199 201 200 198 197 196 191 188 188 190 190 190 188 184 186 193 195 192 192 197 201 201 199 197 195 194 194 193 188 183 187 198 211 224 233 241 255 269 274 280 291 301 316 337 346 351 9 34 52 55 52 44 40 48 52 51 47 43 40 37 34 31 30
189 191 194 194 194 203 211 213 221 225 208 197 195 191 183 177 175 179 191 201 196 191 191 195 197 196 197 199 199 194 192 194 194 190 186 182 180 183 187 190 189 190 195 198 196 190 186 187 188 186 183 180 180 190 202 216 229 241 258 269 271 278 294 311 324 340 354 15 54 77 85 82 76 73 68 63 63 59 51 46 43 39 35 32 30 28
183 184 189 193 196 206 217 220 226 230 209 192 188 186 181 178 184 194 198 194 190 186 184 189 194 194 195 199 201 198 193 190 190 189 185 182 182 182 182 184 187 190 191 191 190 188 185 182 181 179 177 179 184 195 210 230 256 280 290 284 283 306 331 343 351 20 63 90 97 95 92 90 85 81 76 68 61 56 49 45 41 37 33 31 28 26
184 183 187 194 198 204 210 209 215 231 208 194 191 189 185 187 199 202 194 192 194 190 185 187 190 190 192 196 200 201 195 186 183 187 188 186 185 184 183 183 185 188 187 184 184 185 180 175 174 175 180 187 193 205 227 261 293 306 305 294 352 75 118 148 125 116 111 108 106 101 96 94 88 81 74 66 58 53 46 41 38 34 31 29 27 25
189 188 190 198 202 202 201 202 215 235 210 195 197 198 195 199 206 197 187 187 193 194 193 192 192 192 191 193 198 200 192 182 181 186 189 188 187 187 186 183 181 182 181 179 181 179 173 172 176 179 182 188 197 217 247 280 299 302 305 116 119 127 150 147 130 124 119 112 108 104 99 94 87 79 72 63 55 50 42 37 34 31 28 27 26 25
191 194 198 203 204 204 206 212 225 237 218 201 204 205 203 206 205 194 190 190 190 193 196 198 199 197 192 192 197 195 186 180 181 185 188 190 190 188 183 179 177 177 177 180 181 176 174 177 180 179 180 186 206 239 262 284 287 256 129 123 133 145 148 138 129 125 120 113 109 106 99 92 84 76 68 58 51 45 40 35 31 29 27 25 24 23
191 195 198 201 202 206 213 221 229 234 224 215 217 212 208 208 206 199 198 199 193 190 194 198 201 202 198 194 191 187 182 180 180 181 186 192 190 184 179 176 176 178 183 184 181 177 177 179 179 179 185 198 235 265 274 278 255 165 136 132 142 145 141 136 131 126 119 115 112 106 97 88 80 70 61 53 47 42 38 35 32 30 27 25 23 22
188 192 193 196 202 208 216 223 229 232 227 219 216 214 211 210 209 207 206 202 195 188 191 196 201 206 203 192 183 181 182 180 178 179 184 188 186 181 179 179 180 182 184 183 181 179 178 178 181 187 200 223 255 273 273 253 193 158 147 145 146 145 141 136 131 125 119 115 111 103 92 83 74 65 58 52 46 41 38 36 34 32 28 25 23 22
189 195 199 204 211 218 227 233 233 232 229 222 214 213 214 213 211 210 206 200 194 190 190 194 198 202 199 187 178 180 180 178 178 180 180 182 184 183 181 180 182 184 184 184 186 185 178 177 188 197 204 232 262 267 241 192 167 158 155 152 148 145 141 134 128 122 117 114 108 99 88 78 69 63 59 54 47 42 39 36 35 33 29 25 22 21
195 201 206 213 220 225 233 238 235 231 228 223 217 215 215 216 214 210 204 197 192 190 192 190 187 191 190 180 173 176 177 174 177 181 181 183 186 186 182 179 181 185 186 186 191 190 179 177 190 199 207 237 259 237 189 170 164 160 157 154 150 144 137 131 125 120 115 110 104 96 88 78 69 63 58 53 47 42 39 36 34 32 28 25 22 21
206 211 214 219 224 225 228 233 233 231 228 222 217 215 215 216 216 213 207 197 188 188 194 189 180 177 178 173 169 172 174 173 175 181 185 189 191 190 188 184 183 185 187 189 194 193 182 177 188 200 215 237 233 192 175 169 165 162 159 156 150 142 135 130 125 120 114 107 102 96 89 80 70 60 52 46 43 39 36 34 32 28 26 25 23 21
212 214 217 221 224 224 228 232 228 226 228 223 217 215 215 216 217 216 211 203 194 188 190 190 185 178 174 170 168 172 177 177 178 181 186 193 196 197 196 193 188 184 185 190 193 187 177 175 189 206 220 224 198 180 172 168 165 164 161 158 151 143 137 132 127 121 114 107 101 94 87 78 67 56 46 38 35 32 30 30 28 25 23 22 21 21
Height
3056 3057 3055 3054 3056 3061 3065 3070 3074 3078 3081 3084 3086 3089 3092 3094 3096 3098 3101 3102 3103 3104 3105 3106 3106 3107 3109 3110 3112 3114 3116 3117 3118 3118 3118 3119 3119 3119 3120 3121 3124 3127 3130 3134 3136 3138 3139 3141 3142 3143 3144 3145 3146 3147 3148 3149 3150 3151 3152 3153 3153 3154 3155 3155 3156 3157 3158 3159 3159 3160 3160 3161 3161 3162 3162 3162 3162 3162 3162 3162 3162 3161 3161 3160 3159 3159
3054 3051 3049 3053 3058 3063 3067 3070 3074 3078 3081 3084 3086 3088 3091 3093 3096 3098 3100 3101 3102 3103 3104 3105 3105 3106 3108 3109 3111 3112 3114 3115 3116 3115 3114 3116 3116 3116 3118 3120 3123 3126 3130 3133 3135 3137 3139 3141 3142 3143 3144 3145 3146 3147 3148 3149 3150 3151 3151 3152 3153 3154 3155 3155 3156 3157 3158 3158 3159 3159 3160 3161 3161 3162 3162 3162 3162 3162 3161 3161 3161 3160 3160 3159 3158 3157
3048 3044 3046 3054 3059 3064 3067 3070 3074 3077 3081 3084 3085 3088 3090 3092 3096 3098 3099 3100 3101 3103 3103 3104 3105 3105 3107 3108 3110 3111 3113 3115 3114 3112 3112 3114 3115 3116 3118 3121 3123 3126 3129 3132 3134 3137 3138 3140 3141 3142 3144 3144 3146 3147 3148 3149 3150 3151 3151 3152 3153 3154 3155 3156 3156 3157 3158 3158 3159 3159 3160 3161 3161 3161 3162 3161 3161 3161 3161 3160 3160 3159 3159 3158 3157 3156
3042 3041 3047 3054 3059 3063 3066 3069 3073 3077 3080 3082 3084 3086 3088 3091 3095 3097 3099 3100 3101 3102 3102 3103 3104 3104 3105 3106 3108 3109 3111 3111 3110 3109 3111 3116 3119 3120 3120 3121 3124 3126 3129 3131 3134 3136 3138 3139 3140 3142 3143 3144 3145 3147 3148 3149 3150 3151 3151 3152 3153 3154 3155 3156 3156 3157 3158 3158 3159 3159 3160 3160 3161 3161 3161 3161 3160 3160 3160 3159 3159 3158 3157 3156 3156 3155
3041 3042 3047 3053 3058 3061 3065 3068 3071 3074 3078 3080 3083 3085 3088 3091 3094 3096 3098 3098 3100 3101 3101 3102 3103 3102 3102 3103 3105 3107 3108 3109 3110 3112 3116 3120 3123 3123 3122 3123 3125 3127 3129 3131 3133 3136 3137 3138 3140 3141 3142 3143 3145 3147 3148 3149 3150 3151 3151 3152 3153 3154 3155 3156 3156 3157 3158 3158 3159 3159 3160 3160 3160 3160 3160 3160 3160 3159 3159 3158 3157 3156 3156 3155 3154 3153
3042 3044 3048 3052 3056 3060 3063 3065 3068 3072 3076 3079 3081 3084 3088 3091 3093 3096 3097 3097 3099 3099 3099 3101 3101 3099 3099 3101 3102 3104 3106 3108 3111 3115 3119 3121 3122 3122 3123 3125 3126 3127 3130 3131 3133 3135 3136 3138 3139 3140 3142 3143 3145 3146 3148 3149 3150 3151 3151 3152 3153 3154 3155 3155 3156 3157 3157 3158 3158 3159 3159 3159 3159 3159 3159 3159 3159 3158 3158 3157 3156 3155 3155 3154 3153 3152
3042 3044 3047 3051 3055 3059 3062 3064 3067 3071 3075 3077 3079 3084 3088 3090 3093 3095 3096 3097 3098 3098 3098 3099 3098 3097 3097 3098 3100 3102 3104 3107 3111 3115 3117 3118 3119 3121 3125 3128 3128 3129 3130 3131 3134 3135 3136 3137 3138 3140 3141 3143 3144 3146 3147 3149 3150 3151 3151 3152 3153 3153 3154 3155 3156 3156 3157 3157 3157 3158 3158 3158 3158 3158 3158 3158 3157 3157 3156 3156 3155 3154 3153 3153 3152 3151
3039 3043 3046 3049 3053 3057 3058 3061 3065 3069 3073 3075 3078 3084 3088 3089 3092 3094 3095 3097 3097 3097 3097 3096 3096 3096 3094 3095 3098 3100 3102 3105 3109 3113 3114 3115 3118 3122 3126 3129 3130 3130 3131 3132 3134 3135 3136 3137 3138 3139 3141 3142 3144 3145 3147 3148 3149 3150 3151 3152 3152 3153 3154 3154 3155 3155 3156 3156 3156 3156 3156 3156 3156 3156 3157 3156 3156 3156 3155 3154 3153 3152 3152 3151 3150 3150
3038 3042 3044 3047 3051 3054 3055 3059 3064 3069 3073 3075 3078 3084 3087 3089 3092 3093 3095 3096 3096 3097 3094 3092 3094 3094 3092 3092 3096 3099 3100 3103 3107 3110 3112 3114 3117 3121 3125 3128 3130 3130 3131 3132 3133 3134 3135 3136 3137 3139 3140 3141 3143 3145 3146 3147 3148 3150 3150 3151 3152 3152 3153 3153 3154 3154 3155 3155 3155 3155 3155 3155 3155 3155 3155 3155 3155 3154 3153 3153 3152 3151 3150 3150 3149 3148
3038 3042 3045 3048 3050 3051 3054 3059 3064 3068 3072 3075 3079 3084 3087 3090 3091 3093 3095 3095 3096 3096 3089 3088 3091 3091 3090 3090 3093 3096 3097 3100 3104 3108 3111 3113 3116 3120 3124 3126 3128 3129 3130 3131 3132 3133 3134 3135 3136 3138 3139 3141 3142 3144 3145 3146 3148 3149 3150 3150 3151 3152 3152 3153 3153 3153 3154 3154 3154 3154 3154 3154 3154 3154 3154 3153 3153 3153 3152 3151 3151 3150 3149 3148 3148 3147
3038 3042 3046 3048 3049 3051 3054 3059 3064 3068 3072 3076 3079 3083 3086 3089 3091 3092 3093 3094 3097 3091 3083 3084 3089 3091 3090 3088 3089 3091 3094 3098 3103 3106 3109 3110 3114 3119 3121 3124 3126 3126 3127 3129 3130 3131 3133 3134 3135 3136 3138 3140 3141 3143 3145 3146 3147 3148 3149 3150 3150 3151 3152 3152 3152 3153 3153 3153 3153 3153 3153 3153 3153 3153 3152 3152 3151 3151 3151 3150 3150 3149 3148 3147 3146 3146
3038 3041 3044 3045 3048 3052 3055 3058 3063 3067 3072 3075 3077 3080 3084 3087 3089 3091 3092 3094 3093 3085 3080 3083 3088 3090 3088 3085 3086 3089 3092 3097 3100 3103 3105 3107 3112 3116 3118 3121 3124 3123 3124 3127 3128 3129 3130 3132 3133 3135 3136 3138 3140 3142 3144 3145 3147 3148 3149 3150 3150 3151 3151 3152 3152 3152 3153 3153 3153 3153 3153 3153 3152 3152 3151 3150 3150 3150 3149 3149 3148 3148 3147 3146 3145 3145
3037 3039 3041 3044 3047 3050 3053 3056 3061 3065 3069 3072 3074 3077 3081 3084 3088 3090 3090 3089 3085 3081 3081 3084 3086 3087 3084 3083 3086 3088 3091 3095 3098 3101 3103 3105 3109 3112 3115 3119 3121 3121 3122 3124 3126 3127 3128 3130 3132 3134 3135 3137 3138 3140 3142 3144 3145 3147 3148 3149 3150 3150 3150 3151 3151 3152 3152 3152 3152 3152 3152 3152 3151 3151 3150 3149 3149 3149 3148 3148 3147 3147 3146 3145 3144 3143
3036 3038 3040 3042 3044 3048 3050 3052 3055 3059 3063 3067 3069 3071 3074 3078 3082 3085 3085 3083 3081 3080 3082 3084 3085 3083 3080 3082 3085 3087 3090 3094 3097 3100 3102 3105 3108 3110 3113 3116 3119 3120 3121 3123 3124 3125 3126 3128 3130 3132 3134 3135 3136 3138 3140 3142 3143 3145 3146 3147 3148 3149 3149 3150 3150 3151 3151 3151 3151 3151 3151 3151 3150 3150 3149 3148 3148 3148 3147 3147 3146 3146 3145 3144 3143 3142
3032 3035 3036 3038 3041 3044 3048 3050 3052 3055 3061 3065 3067 3069 3071 3071 3074 3078 3080 3080 3080 3081 3082 3084 3084 3080 3079 3081 3082 3085 3089 3092 3095 3098 3101 3105 3107 3110 3113 3115 3117 3118 3119 3121 3123 3124 3125 3127 3129 3131 3132 3134 3135 3137 3138 3140 3141 3143 3144 3146 3147 3148 3148 3149 3149 3149 3150 3150 3150 3150 3150 3149 3149 3148 3148 3147 3147 3146 3146 3146 3145 3144 3144 3143 3142 3141
3030 3032 3034 3038 3041 3043 3046 3050 3054 3057 3060 3064 3067 3069 3068 3068 3071 3075 3077 3078 3079 3080 3081 3082 3080 3077 3078 3080 3081 3084 3087 3089 3094 3097 3100 3102 3105 3108 3111 3113 3116 3117 3117 3120 3122 3124 3125 3125 3127 3129 3130 3132 3134 3135 3137 3138 3140 3141 3143 3144 3145 3146 3147 3147 3148 3148 3148 3148 3148 3148 3148 3147 3147 3146 3146 3146 3146 3146 3145 3145 3144 3143 3142 3141 3140 3139
3029 3032 3035 3039 3041 3043 3046 3049 3053 3056 3058 3061 3063 3063 3064 3068 3073 3075 3076 3077 3079 3080 3079 3078 3076 3076 3079 3080 3080 3082 3085 3087 3091 3095 3098 3101 3103 3107 3110 3113 3115 3115 3118 3120 3121 3122 3123 3124 3125 3127 3128 3130 3132 3134 3136 3137 3138 3140 3141 3143 3144 3145 3145 3146 3147 3147 3147 3147 3147 3146 3146 3146 3145 3145 3145 3145 3145 3145 3144 3143 3142 3141 3141 3140 3139 3138
3028 3032 3035 3038 3041 3043 3046 3049 3052 3055 3056 3057 3057 3059 3064 3070 3073 3073 3075 3077 3078 3078 3077 3075 3075 3075 3077 3079 3079 3081 3084 3086 3090 3094 3098 3101 3103 3106 3109 3112 3113 3115 3118 3119 3119 3121 3122 3123 3124 3125 3126 3129 3130 3132 3134 3135 3137 3138 3140 3141 3142 3143 3144 3145 3145 3145 3145 3145 3145 3145 3145 3145 3145 3144 3144 3144 3144 3143 3142 3141 3141 3140 3139 3138 3137 3136
3028 3032 3035 3038 3040 3042 3045 3048 3051 3052 3054 3054 3055 3059 3064 3068 3069 3070 3073 3075 3076 3078 3076 3073 3073 3073 3073 3075 3076 3078 3081 3085 3090 3095 3097 3099 3101 3104 3107 3110 3113 3116 3117 3117 3118 3120 3120 3122 3123 3123 3125 3127 3128 3131 3132 3134 3135 3137 3138 3139 3140 3141 3142 3143 3143 3143 3143 3143 3144 3144 3143 3143 3143 3143 3143 3142 3142 3141 3140 3140 3139 3138 3137 3136 3135 3134
3027 3031 3033 3035 3039 3042 3043 3044 3044 3045 3050 3054 3057 3060 3063 3064 3065 3067 3070 3071 3073 3077 3076 3073 3072 3069 3068 3072 3074 3075 3079 3083 3088 3092 3094 3096 3099 3102 3104 3107 3111 3114 3115 3117 3119 3120 3120 3121 3122 3122 3123 3125 3127 3129 3130 3132 3133 3135 3136 3137 3137 3139 3140 3141 3141 3141 3141 3141 3142 3142 3142 3142 3142 3141 3141 3140 3140 3139 3139 3138 3137 3136 3135 3134 3133 3132
3026 3029 3030 3032 3036 3038 3037 3036 3037 3041 3046 3050 3053 3056 3058 3060 3062 3065 3069 3070 3070 3073 3074 3073 3069 3064 3065 3070 3073 3074 3078 3082 3085 3088 3091 3094 3097 3100 3103 3105 3108 3111 3113 3115 3117 3119 3120 3121 3121 3121 3122 3124 3125 3127 3128 3130 3131 3132 3133 3134 3135 3136 3137 3138 3139 3139 3139 3140 3140 3140 3140 3140 3140 3140 3139 3138 3138 3138 3137 3136 3135 3134 3133 3132 3131 3130
3025 3027 3028 3030 3031 3031 3032 3034 3038 3043 3046 3048 3050 3052 3054 3057 3060 3064 3066 3067 3068 3069 3070 3070 3066 3063 3066 3070 3072 3074 3078 3080 3083 3086 3088 3091 3094 3097 3100 3103 3107 3109 3111 3112 3114 3117 3118 3119 3119 3120 3120 3122 3123 3125 3127 3128 3128 3129 3130 3131 3133 3134 3135 3136 3136 3137 3137 3138 3138 3138 3138 3138 3138 3138 3137 3137 3136 3136 3135 3134 3133 3132 3131 3130 3129 3127
3024 3026 3027 3028 3028 3029 3033 3037 3040 3043 3046 3048 3050 3052 3054 3056 3058 3060 3061 3062 3065 3067 3068 3068 3066 3064 3066 3068 3071 3074 3077 3079 3082 3084 3086 3089 3092 3095 3098 3101 3105 3107 3109 3111 3113 3115 3116 3117 3118 3118 3119 3120 3121 3123 3125 3126 3126 3127 3128 3130 3131 3132 3133 3134 3134 3135 3135 3136 3136 3137 3136 3136 3136 3136 3135 3135 3134 3133 3133 3132 3131 3130 3129 3128 3126 3125
3023 3025 3026 3028 3029 3031 3035 3038 3040 3042 3045 3047 3047 3050 3052 3054 3055 3057 3058 3060 3064 3065 3067 3068 3066 3065 3065 3067 3070 3073 3075 3078 3080 3082 3085 3088 3090 3094 3097 3100 3102 3105 3107 3109 3112 3113 3114 3115 3116 3116 3117 3119 3120 3122 3123 3124 3125 3125 3127 3128 3129 3130 3131 3132 3132 3133 3133 3134 3135 3135 3135 3135 3134 3133 3133 3132 3132 3131 3130 3130 3129 3128 3126 3125 3124 3123
3020 3022 3024 3026 3028 3030 3033 3036 3037 3039 3041 3042 3043 3046 3049 3051 3054 3056 3058 3061 3062 3063 3064 3065 3064 3063 3065 3066 3069 3071 3073 3076 3078 3080 3084 3087 3090 3092 3095 3098 3100 3102 3105 3108 3110 3111 3112 3113 3113 3114 3116 3117 3118 3120 3122 3123 3123 3124 3125 3126 3127 3129 3129 3130 3131 3131 3132 3133 3133 3133 3133 3132 3132 3131 3130 3130 3129 3129 3128 3127 3126 3125 3124 3123 3122 3120
3018 3020 3022 3024 3025 3027 3029 3030 3031 3033 3036 3038 3040 3043 3046 3049 3052 3054 3056 3058 3058 3059 3061 3062 3061 3062 3064 3065 3067 3069 3071 3073 3076 3079 3083 3086 3090 3091 3094 3096 3098 3100 3103 3106 3108 3109 3110 3111 3111 3113 3114 3115 3117 3118 3120 3121 3121 3122 3123 3125 3126 3127 3127 3128 3129 3130 3130 3131 3131 3131 3131 3130 3130 3129 3128 3128 3127 3127 3126 3125 3124 3123 3122 3121 3119 3118
3017 3019 3021 3022 3024 3025 3026 3027 3029 3032 3034 3036 3038 3040 3044 3047 3050 3053 3055 3055 3055 3057 3058 3059 3060 3061 3063 3064 3065 3066 3068 3071 3074 3077 3081 3084 3087 3090 3092 3094 3096 3099 3102 3105 3106 3107 3108 3109 3110 3112 3113 3114 3115 3116 3117 3118 3119 3120 3122 3123 3124 3125 3126 3127 3127 3128 3129 3129 3129 3129 3128 3128 3128 3127 3127 3126 3126 3125 3124 3123 3122 3121 3119 3118 3116 3115
3016 3017 3019 3022 3023 3024 3026 3027 3029 3031 3032 3033 3035 3037 3040 3044 3047 3050 3051 3052 3054 3055 3055 3057 3059 3060 3061 3062 3063 3064 3066 3068 3071 3074 3078 3081 3084 3087 3089 3092 3095 3098 3101 3103 3104 3105 3106 3108 3110 3112 3112 3112 3113 3114 3115 3116 3117 3118 3119 3121 3122 3123 3124 3125 3126 3126 3126 3126 3126 3126 3126 3126 3125 3125 3125 3124 3124 3123 3122 3121 3120 3118 3117 3115 3114 3112
3014 3016 3018 3020 3022 3023 3025 3026 3027 3028 3029 3031 3032 3035 3038 3041 3043 3046 3048 3050 3052 3053 3053 3056 3058 3059 3059 3060 3061 3062 3064 3066 3069 3072 3075 3078 3081 3084 3087 3091 3094 3096 3099 3101 3102 3103 3106 3108 3109 3110 3110 3111 3111 3112 3113 3114 3115 3116 3117 3119 3120 3122 3123 3123 3124 3124 3124 3124 3124 3124 3124 3124 3123 3123 3123 3122 3122 3121 3120 3119 3117 3116 3114 3113 3111 3109
3013 3015 3017 3019 3021 3023 3024 3025 3026 3027 3027 3028 3030 3032 3035 3038 3040 3043 3045 3048 3050 3052 3053 3055 3057 3057 3058 3058 3059 3061 3063 3065 3068 3071 3074 3077 3080 3083 3086 3089 3092 3095 3097 3099 3100 3102 3105 3106 3108 3109 3109 3109 3109 3110 3111 3112 3113 3114 3116 3117 3119 3120 3121 3122 3122 3122 3122 3122 3122 3122 3122 3122 3122 3122 3121 3120 3120 3118 3117 3116 3115 3113 3112 3110 3109 3107
3012 3013 3015 3017 3020 3021 3023 3024 3024 3025 3025 3026 3027 3030 3033 3036 3038 3041 3043 3045 3047 3050 3052 3053 3053 3055 3056 3057 3058 3060 3061 3064 3067 3070 3073 3076 3079 3082 3085 3089 3091 3094 3095 3097 3099 3102 3104 3105 3106 3107 3108 3107 3107 3108 3109 3111 3112 3113 3115 3116 3117 3118 3119 3120 3120 3121 3121 3121 3121 3121 3121 3120 3120 3120 3119 3118 3117 3116 3115 3114 3112 3111 3109 3108 3106 3104
3010 3012 3014 3016 3018 3020 3021 3022 3023 3023 3023 3024 3025 3027 3030 3033 3035 3037 3040 3042 3044 3046 3048 3049 3050 3051 3054 3055 3057 3058 3060 3062 3065 3067 3071 3074 3077 3080 3083 3086 3089 3091 3093 3096 3099 3101 3103 3104 3105 3105 3106 3106 3105 3106 3108 3109 3111 3112 3113 3114 3115 3116 3117 3118 3118 3119 3119 3119 3119 3119 3119 3119 3118 3118 3117 3116 3115 3114 3112 3111 3110 3108 3107 3105 3103 3101
3008 3011 3013 3014 3017 3019 3020 3021 3022 3023 3023 3023 3024 3025 3027 3030 3033 3035 3037 3040 3042 3043 3044 3046 3048 3050 3052 3053 3054 3056 3058 3060 3063 3065 3068 3072 3075 3079 3082 3085 3088 3091 3094 3096 3098 3100 3101 3102 3103 3103 3103 3104 3104 3105 3106 3108 3109 3110 3111 3113 3114 3115 3116 3116 3117 3117 3117 3117 3118 3118 3118 3117 3116 3115 3114 3113 3113 3112 3110 3109 3108 3106 3104 3103 3101 3099
3007 3010 3012 3014 3016 3018 3019 3020 3023 3024 3024 3022 3022 3024 3025 3027 3030 3032 3035 3037 3039 3041 3043 3045 3048 3049 3050 3051 3053 3054 3056 3058 3061 3064 3067 3071 3074 3077 3080 3084 3088 3091 3093 3095 3097 3098 3099 3100 3101 3101 3102 3103 3104 3105 3106 3107 3107 3109 3110 3111 3112 3113 3114 3115 3115 3115 3115 3116 3116 3116 3116 3115 3114 3113 3113 3112 3111 3110 3109 3107 3106 3104 3103 3101 3099 3097
3006 3009 3011 3013 3015 3017 3019 3021 3023 3024 3022 3021 3022 3024 3025 3026 3027 3030 3032 3034 3037 3039 3042 3044 3046 3046 3048 3050 3051 3053 3055 3058 3061 3065 3068 3072 3075 3078 3081 3084 3087 3090 3092 3093 3094 3096 3097 3098 3099 3100 3101 3103 3104 3105 3105 3106 3107 3108 3109 3110 3111 3113 3113 3113 3113 3113 3114 3114 3115 3115 3114 3113 3112 3112 3111 3110 3109 3108 3107 3106 3104 3103 3102 3100 3098 3097
3006 3008 3010 3012 3014 3016 3018 3021 3022 3021 3020 3020 3022 3023 3024 3024 3025 3027 3029 3032 3034 3037 3040 3042 3043 3044 3046 3048 3050 3052 3054 3058 3062 3066 3070 3073 3076 3080 3083 3085 3087 3089 3090 3092 3093 3094 3096 3096 3097 3099 3101 3102 3103 3103 3104 3105 3107 3108 3109 3110 3111 3112 3112 3111 3112 3112 3113 3113 3113 3113 3112 3111 3111 3110 3109 3108 3108 3107 3106 3105 3104 3102 3101 3100 3098 3096
3006 3008 3009 3012 3014 3016 3018 3020 3021 3020 3019 3019 3020 3022 3024 3024 3025 3026 3028 3030 3032 3035 3037 3040 3041 3042 3044 3046 3048 3051 3054 3058 3063 3066 3069 3073 3076 3079 3082 3084 3086 3087 3089 3090 3092 3093 3094 3094 3096 3098 3100 3101 3102 3103 3104 3105 3106 3107 3108 3110 3110 3110 3110 3110 3111 3111 3112 3112 3112 3111 3111 3110 3109 3108 3108 3107 3106 3106 3105 3104 3103 3102 3100 3099 3097 3095
3005 3007 3009 3011 3013 3015 3018 3020 3022 3022 3021 3019 3020 3022 3024 3024 3025 3027 3028 3028 3030 3032 3034 3037 3039 3041 3043 3045 3047 3050 3054 3058 3061 3063 3066 3070 3073 3076 3079 3081 3083 3085 3087 3088 3090 3091 3091 3093 3095 3097 3099 3100 3101 3103 3104 3104 3105 3107 3108 3109 3109 3109 3109 3110 3110 3110 3111 3111 3110 3110 3109 3109 3108 3108 3107 3107 3106 3105 3104 3103 3102 3101 3100 3098 3096 3094
3004 3007 3009 3010 3012 3015 3017 3020 3021 3021 3020 3020 3021 3022 3024 3024 3025 3027 3028 3027 3027 3030 3032 3035 3038 3040 3041 3043 3045 3048 3052 3055 3057 3060 3063 3066 3069 3073 3076 3078 3081 3083 3085 3087 3088 3089 3091 3093 3095 3097 3099 3100 3101 3102 3103 3104 3105 3107 3107 3108 3108 3108 3108 3109 3109 3109 3109 3109 3109 3109 3108 3108 3107 3107 3107 3106 3106 3105 3104 3103 3102 3100 3099 3097 3095 3093
3003 3006 3008 3009 3011 3014 3017 3020 3020 3019 3019 3020 3020 3021 3022 3023 3024 3026 3026 3025 3026 3029 3031 3034 3036 3038 3041 3043 3044 3046 3048 3051 3054 3056 3060 3063 3067 3071 3075 3077 3079 3080 3083 3085 3086 3088 3090 3093 3095 3097 3098 3099 3100 3101 3103 3104 3105 3106 3106 3106 3106 3107 3107 3107 3107 3108 3108 3108 3108 3108 3108 3108 3107 3107 3107 3106 3106 3105 3103 3102 3101 3099 3098 3097 3095 3093
3002 3004 3006 3008 3010 3014 3017 3019 3020 3018 3017 3018 3018 3019 3020 3021 3022 3023 3023 3024 3027 3029 3031 3033 3035 3037 3039 3042 3044 3046 3048 3051 3053 3056 3059 3062 3066 3069 3072 3076 3078 3080 3082 3084 3085 3087 3089 3092 3095 3096 3098 3098 3100 3101 3102 3103 3104 3104 3104 3105 3105 3106 3106 3106 3106 3107 3107 3107 3107 3108 3108 3108 3107 3107 3107 3106 3105 3104 3103 3102 3101 3099 3098 3096 3095 3093
3000 3003 3005 3008 3010 3013 3015 3017 3018 3016 3015 3016 3017 3017 3018 3019 3019 3021 3022 3025 3027 3028 3030 3032 3034 3036 3038 3041 3043 3045 3047 3050 3054 3057 3059 3061 3064 3066 3070 3073 3075 3078 3080 3082 3084 3086 3089 3091 3093 3095 3096 3097 3099 3100 3101 3102 3102 3103 3103 3104 3104 3105 3105 3105 3105 3106 3106 3107 3107 3107 3108 3108 3107 3107 3107 3106 3105 3104 3103 3102 3101 3100 3098 3097 3095 3094
2999 3001 3004 3006 3009 3011 3013 3015 3015 3013 3012 3014 3015 3015 3016 3017 3018 3020 3023 3024 3026 3027 3029 3031 3033 3035 3037 3039 3042 3044 3047 3050 3054 3057 3059 3061 3063 3066 3068 3071 3074 3076 3078 3080 3083 3086 3088 3090 3092 3094 3095 3097 3098 3099 3100 3101 3101 3102 3102 3103 3103 3104 3104 3105 3105 3105 3106 3107 3107 3107 3108 3108 3108 3107 3107 3106 3105 3104 3103 3102 3101 3100 3099 3098 3096 3094
2998 3000 3002 3003 3006 3008 3010 3011 3011 3010 3010 3012 3013 3014 3016 3017 3018 3019 3021 3022 3024 3026 3027 3029 3031 3033 3035 3038 3040 3042 3046 3050 3052 3055 3058 3060 3062 3065 3068 3070 3073 3076 3079 3081 3083 3085 3088 3090 3092 3094 3095 3097 3098 3099 3099 3100 3101 3101 3101 3102 3102 3103 3104 3104 3105 3106 3106 3107 3107 3107 3108 3108 3108 3108 3107 3106 3105 3104 3103 3103 3102 3101 3100 3098 3096 3094
2997 2999 3000 3002 3003 3005 3007 3008 3009 3009 3010 3011 3012 3013 3015 3016 3017 3018 3019 3020 3022 3023 3025 3027 3030 3032 3034 3036 3038 3042 3045 3049 3051 3054 3057 3059 3062 3065 3068 3071 3074 3076 3078 3081 3083 3085 3087 3090 3092 3094 3095 3096 3097 3098 3099 3099 3100 3100 3101 3101 3102 3103 3103 3104 3105 3106 3107 3107 3107 3108 3108 3108 3108 3108 3107 3106 3105 3105 3104 3103 3102 3101 3100 3098 3096 3094
2997 2999 3000 3002 3003 3004 3005 3007 3008 3009 3009 3010 3011 3013 3014 3015 3016 3017 3018 3019 3020 3022 3024 3026 3029 3031 3033 3034 3037 3041 3044 3047 3049 3053 3057 3059 3062 3065 3068 3070 3073 3076 3078 3080 3082 3085 3087 3089 3091 3093 3094 3096 3097 3097 3098 3098 3099 3099 3100 3101 3102 3102 3103 3104 3105 3106 3107 3108 3108 3108 3108 3108 3108 3108 3107 3106 3106 3105 3105 3104 3103 3102 3100 3098 3096 3095
2997 2999 3000 3001 3002 3003 3004 3005 3006 3007 3008 3009 3010 3011 3013 3014 3016 3017 3018 3019 3020 3021 3023 3025 3028 3030 3032 3034 3036 3040 3042 3045 3048 3052 3055 3059 3062 3064 3067 3070 3073 3075 3077 3080 3082 3085 3087 3089 3091 3092 3094 3095 3096 3096 3097 3097 3097 3098 3099 3100 3102 3103 3104 3105 3106 3107 3107 3108 3108 3108 3108 3108 3108 3108 3107 3107 3107 3106 3105 3104 3103 3101 3100 3098 3097 3095
2996 2998 2999 3000 3001 3003 3003 3004 3005 3006 3007 3008 3009 3010 3012 3013 3015 3016 3018 3019 3020 3021 3022 3024 3026 3029 3031 3033 3036 3039 3041 3045 3048 3051 3054 3058 3061 3064 3067 3069 3072 3074 3076 3079 3082 3084 3086 3089 3090 3092 3093 3094 3095 3095 3096 3096 3097 3098 3099 3100 3102 3103 3104 3105 3106 3107 3108 3108 3108 3108 3108 3108 3108 3108 3108 3108 3107 3107 3106 3104 3103 3101 3100 3099 3097 3096
2995 2996 2998 2999 3001 3002 3003 3004 3004 3005 3006 3006 3007 3008 3010 3012 3013 3015 3017 3018 3019 3020 3022 3023 3026 3029 3031 3033 3035 3038 3041 3045 3049 3052 3055 3057 3060 3063 3066 3068 3070 3073 3075 3078 3081 3084 3085 3087 3089 3091 3092 3093 3094 3094 3094 3095 3096 3098 3099 3101 3102 3103 3104 3105 3106 3107 3108 3108 3109 3109 3108 3108 3108 3108 3108 3108 3108 3107 3106 3104 3103 3102 3100 3099 3098 3096
2994 2996 2998 2999 3000 3001 3002 3003 3003 3004 3004 3005 3006 3007 3008 3010 3012 3014 3016 3018 3019 3020 3021 3023 3025 3028 3031 3033 3036 3039 3042 3045 3049 3052 3055 3057 3060 3062 3065 3067 3069 3072 3075 3077 3080 3082 3084 3086 3088 3090 3091 3091 3092 3093 3094 3095 3096 3098 3099 3101 3102 3103 3104 3105 3106 3107 3108 3108 3109 3109 3109 3109 3109 3109 3109 3108 3108 3107 3105 3104 3103 3102 3101 3099 3098 3096
2994 2996 2997 2998 2999 3000 3001 3002 3002 3003 3003 3004 3005 3006 3007 3009 3011 3013 3015 3017 3019 3020 3022 3023 3024 3027 3030 3033 3036 3040 3043 3046 3048 3051 3054 3057 3060 3062 3064 3065 3067 3070 3074 3076 3078 3081 3083 3085 3087 3089 3090 3090 3091 3092 3093 3095 3097 3098 3100 3101 3103 3104 3105 3106 3107 3108 3108 3109 3109 3109 3109 3109 3109 3109 3109 3108 3107 3106 3105 3104 3103 3102 3101 3100 3098 3096